"2009-07-12 00:00:00",1054371,16.44,291,1.874,0.855,22.15,110.0977,25.15,26.2,26.85,0,111.2,13.14,25.99,253.0
"2009-07-12 00:00:30",1054372,14.74,286.2,1.744,0.582,22.1,110.0755,25.09,26.17,27.17,0,111.2,13.14,25.93,248.2
"2009-07-12 00:01:00",1054373,13.99,283.8,1.084,0.352,22.13,110.0741,25.08,26.15,27.39,0,111.2,13.14,25.92,245.8
"2009-07-12 00:01:30",1054374,13.92,286.7,2.157,1.188,22.04,110.0665,25.07,26.14,27.79,0,111.2,13.13,25.90,248.7
"2009-07-12 00:02:00",1054375,16.06,287.1,2.311,0.478,22.45,110.0456,25.01,26.11,26.41,0,111.2,13.13,25.85,249.1
"2009-07-12 00:02:30",1054376,15.67,286.8,2.718,0.609,22.31,110.0435,25.01,26.08,26.82,0,111.2,13.13,25.85,248.8
"2009-07-12 00:03:00",1054377,14.92,290.5,1.703,0.557,22.17,110.0472,25.02,26.07,26.95,0,111.2,13.13,25.86,252.5
"2009-07-12 00:03:30",1054378,14.11,286.5,2.96,0.588,21.96,110.0508,25.03,26.06,27.83,0,111.2,13.13,25.86,248.5
"2009-07-12 00:04:00",1054379,15.19,288.4,2.071,0.536,22.11,110.0424,25,26.03,27.6,0,111.2,13.13,25.84,250.4
"2009-07-12 00:04:30",1054380,14.15,287.7,3.112,0.617,21.98,110.0325,24.98,26.01,27.72,0,111.2,13.13,25.82,249.7
"2009-07-12 00:05:00",1054381,14.08,285.6,3.642,0.438,21.92,110.0318,24.98,26,28.07,0,111.2,13.13,25.82,247.6
"2009-07-12 00:05:30",1054382,14.37,286.6,1.803,0.337,22.08,110.0291,24.97,25.98,27.58,0,111.2,13.13,25.81,248.6
"2009-07-12 00:06:00",1054383,13.9,285.3,1.916,0.984,21.83,110.0076,24.91,25.96,28.33,0,111.1,13.13,25.75,247.3
"2009-07-12 00:06:30",1054384,12.9,288.6,2.242,0.584,21.73,110.0008,24.9,25.94,28.77,0,111.1,13.13,25.74,250.6
"2009-07-12 00:07:00",1054385,11.55,288.3,3.658,0.977,21.63,109.9961,24.88,25.91,29.22,0,111.1,13.14,25.72,250.3
"2009-07-12 00:07:30",1054386,12.11,287.4,2.852,0.395,21.71,109.9722,24.82,25.89,29.22,0,111.1,13.14,25.66,249.4
"2009-07-12 00:08:00",1054387,12.96,287.6,3.079,1.106,21.68,109.9669,24.81,25.87,29.03,0,111.1,13.14,25.65,249.6
"2009-07-12 00:08:30",1054388,16.53,290.2,4.051,0.677,21.79,109.9388,24.74,25.83,27.91,0,111.1,13.14,25.58,252.2
"2009-07-12 00:09:00",1054389,16.37,289.8,1.73,0.406,21.77,109.9343,24.73,25.79,27.77,0,111.1,13.14,25.56,251.8
"2009-07-12 00:09:30",1054390,15.57,287,2.254,0.287,21.7,109.9092,24.66,25.76,27.65,0,111.1,13.14,25.50,249.0
"2009-07-12 00:10:00",1054391,14.43,290,1.118,0.497,21.54,109.9075,24.66,25.71,28.32,0,111.1,13.14,25.49,252.0
"2009-07-12 00:10:30",1054392,14.15,288.9,2.522,0.626,21.53,109.8844,24.6,25.68,28.75,0,111.1,13.14,25.44,250.9
"2009-07-12 00:11:00",1054393,15.24,291,2.87,1.863,21.7,109.8744,24.57,25.64,28.5,0,111.1,13.14,25.41,253.0
"2009-07-12 00:11:30",1054394,16.5,288.9,2.406,0.693,21.67,109.8514,24.51,25.6,28.33,0,111.1,13.14,25.35,250.9
"2009-07-12 00:12:00",1054395,19.4,288.6,1.65,0.997,21.85,109.8393,24.48,25.58,27.84,0,111.1,13.14,25.32,250.6
"2009-07-12 00:12:30",1054396,18.23,290,4.787,0.705,21.68,109.8115,24.41,25.51,28.32,0,111.1,13.14,25.25,252.0
"2009-07-12 00:13:00",1054397,18.79,292.7,1.668,0.296,21.92,109.8051,24.39,25.46,27.86,0,111.1,13.14,25.23,254.7
"2009-07-12 00:13:30",1054398,19.28,293.6,1.634,0.648,21.7,109.7795,24.33,25.43,28.01,0,111.1,13.14,25.16,255.6
"2009-07-12 00:14:00",1054399,19.86,292.8,1.9,0.497,21.39,109.7686,24.3,25.4,28.97,0,111.1,13.14,25.14,254.8
"2009-07-12 00:14:30",1054400,19.75,291.5,1.304,0.356,21.71,109.7424,24.23,25.35,28.64,0,111.1,13.15,25.07,253.5
"2009-07-12 00:15:00",1054401,20.09,294.1,1.251,0.354,21.92,109.7219,24.18,25.31,28.1,0,111.1,13.15,25.02,256.1
"2009-07-12 00:15:30",1054402,20.1,293.3,1.264,0.299,22.17,109.7062,24.14,25.24,27.7,0,111.1,13.15,24.98,255.3
"2009-07-12 00:16:00",1054403,19.62,295.1,0.604,0.392,21.79,109.6821,24.08,25.19,27.86,0,111.1,13.15,24.91,257.1
"2009-07-12 00:16:30",1054404,19.71,294.9,0.804,0.292,21.87,109.6731,24.05,25.15,27.58,0,111.1,13.15,24.89,256.9
"2009-07-12 00:17:00",1054405,19.34,293.4,0.894,0.305,21.87,109.6663,24.04,25.08,27.45,0,111.1,13.15,24.87,255.4
"2009-07-12 00:17:30",1054406,19.04,294.7,1.729,0.475,21.49,109.6506,24,25.07,27.93,0,111.1,13.15,24.83,256.7
"2009-07-12 00:18:00",1054407,19.36,294.8,1.211,0.399,21.49,109.6424,23.98,25.05,28.35,0,111.1,13.15,24.81,256.8
"2009-07-12 00:18:30",1054408,19.33,293.5,1.319,0.384,21.32,109.6403,23.97,25.04,28.34,0,111.1,13.15,24.81,255.5
"2009-07-12 00:19:00",1054409,19.41,292.4,1.91,0.507,21.17,109.638,23.96,25,28.89,0,111.1,13.14,24.80,254.4
"2009-07-12 00:19:30",1054410,19.33,289.1,2.035,0.529,21.13,109.6186,23.91,24.99,29.24,0,111.1,13.14,24.75,251.1
"2009-07-12 00:20:00",1054411,18.17,282.2,2.785,0.641,21.23,109.6131,23.9,24.97,29.81,0,111.1,13.15,24.74,244.2
"2009-07-12 00:20:30",1054412,16.3,283.4,2.54,0.57,21.01,109.5956,23.86,24.94,30.29,0,111.1,13.14,24.69,245.4
"2009-07-12 00:21:00",1054413,15.33,279.6,2.052,1.577,21.08,109.5785,23.81,24.92,31.06,0,111.1,13.14,24.65,241.6
"2009-07-12 00:21:30",1054414,14.27,277.7,2.661,1.206,21.05,109.5607,23.77,24.87,31.57,0,111.1,13.14,24.60,239.7
"2009-07-12 00:22:00",1054415,15.05,281.5,3.155,0.926,21.05,109.528,23.68,24.82,31.82,0,111.1,13.14,24.52,243.5
"2009-07-12 00:22:30",1054416,15.63,278.4,2.495,2.017,20.89,109.4971,23.6,24.75,32.16,0,111.1,13.15,24.44,240.4
"2009-07-12 00:23:00",1054417,15.52,283.1,4.987,1.098,20.89,109.4637,23.52,24.71,32.27,0,111.1,13.15,24.35,245.1
"2009-07-12 00:23:30",1054418,15.99,286.4,2.817,1.659,20.86,109.4307,23.43,24.64,32.04,0,111.1,13.15,24.27,248.4
"2009-07-12 00:24:00",1054419,14.32,282,7.324,1.251,20.84,109.395,23.34,24.57,32.37,0,111,13.15,24.17,244.0
"2009-07-12 00:24:30",1054420,16.17,280.3,2.412,0.985,20.9,109.3575,23.24,24.49,32.6,0,111,13.15,24.08,242.3
"2009-07-12 00:25:00",1054421,15.15,287.6,2.119,0.805,19.99,109.3212,23.15,24.42,34.92,0,111,13.15,23.98,249.6
"2009-07-12 00:25:30",1054422,15.56,285.9,3.212,1.097,20.11,109.2844,23.06,24.33,35.79,0,111,13.15,23.89,247.9
"2009-07-12 00:26:00",1054423,14.63,285.7,4.19,1.584,20.68,109.2282,22.91,24.24,35.76,0,111,13.16,23.74,247.7
"2009-07-12 00:26:30",1054424,17.2,287.3,1.355,0.439,20.5,109.1695,22.76,24.12,35.39,0,111,13.16,23.59,249.3
"2009-07-12 00:27:00",1054425,18.42,288.8,2.896,0.378,20.44,109.1195,22.63,24,35.64,0,111,13.16,23.46,250.8
"2009-07-12 00:27:30",1054426,18.8,290.5,1.481,0.667,20.34,109.0756,22.52,23.88,36.15,0,111,13.16,23.35,252.5
"2009-07-12 00:28:00",1054427,19.85,290.4,1.101,0.588,20.5,109.027,22.4,23.75,35.47,0,111,13.16,23.23,252.4
"2009-07-12 00:28:30",1054428,20.06,289.9,0.76,0.208,21.02,108.9866,22.29,23.64,33.94,0,111,13.16,23.12,251.9
"2009-07-12 00:29:00",1054429,19.97,290.7,0.524,0.204,21.06,108.9557,22.21,23.55,33.51,0,111,13.16,23.04,252.7
"2009-07-12 00:29:30",1054430,20.18,291.5,0.475,0.182,21.01,108.9343,22.16,23.44,33.43,0,111,13.16,22.99,253.5
"2009-07-12 00:30:00",1054431,19.5,291.2,0.854,0.476,21.21,108.9167,22.11,23.37,33.2,0,111,13.16,22.94,253.2
"2009-07-12 00:30:30",1054432,18.89,290.1,1.158,0.317,21.26,108.9053,22.08,23.3,33.01,0,111,13.16,22.91,252.1
"2009-07-12 00:31:00",1054433,18.66,290.1,0.774,0.318,21.19,108.9083,22.09,23.26,32.98,0,111,13.16,22.92,252.1
"2009-07-12 00:31:30",1054434,18.75,290.3,0.859,0.196,21.1,108.9216,22.12,23.23,33.06,0,111,13.16,22.95,252.3
"2009-07-12 00:32:00",1054435,18.36,290.7,1.36,0.186,21.05,108.9461,22.19,23.24,33.03,0,111,13.17,23.02,252.7
"2009-07-12 00:32:30",1054436,18.22,292.2,1.134,0.201,20.99,108.9527,22.2,23.24,32.99,0,111,13.17,23.03,254.2
"2009-07-12 00:33:00",1054437,17.78,292.3,1.048,0.297,20.97,108.9816,22.28,23.26,33,0,111,13.17,23.11,254.3
"2009-07-12 00:33:30",1054438,17.52,290.8,1.736,0.268,21.03,108.9965,22.32,23.27,32.85,0,111,13.17,23.15,252.8
"2009-07-12 00:34:00",1054439,16.97,289.4,1.082,0.201,21.11,109.0234,22.39,23.31,32.57,0,111,13.17,23.22,251.4
"2009-07-12 00:34:30",1054440,16.72,288.9,0.783,0.331,21.37,109.0414,22.43,23.33,32.31,0,111,13.17,23.26,250.9
"2009-07-12 00:35:00",1054441,16.55,288.9,1.579,0.289,21.32,109.065,22.49,23.39,32.09,0,110.9,13.17,23.32,250.9
"2009-07-12 00:35:30",1054442,16.74,290.6,0.909,0.259,21.25,109.0944,22.57,23.44,31.97,0,110.9,13.17,23.40,252.6
"2009-07-12 00:36:00",1054443,16.51,290.5,0.923,0.226,21.28,109.1224,22.64,23.47,31.79,0,111,13.16,23.47,252.5
"2009-07-12 00:36:30",1054444,16.84,289.2,0.867,0.238,21.31,109.1426,22.69,23.52,31.58,0,111,13.17,23.52,251.2
"2009-07-12 00:37:00",1054445,16.7,289.7,1.73,0.306,21.37,109.1713,22.77,23.58,31.51,0,111,13.17,23.60,251.7
"2009-07-12 00:37:30",1054446,16.08,291.7,0.56,0.23,21.4,109.1916,22.82,23.63,31.39,0,111,13.17,23.65,253.7
"2009-07-12 00:38:00",1054447,15.41,289.6,1.159,0.217,21.45,109.2111,22.87,23.69,31.24,0,111,13.17,23.70,251.6
"2009-07-12 00:38:30",1054448,15.61,287.7,0.88,0.249,21.38,109.2375,22.94,23.72,31.14,0,111,13.17,23.77,249.7
"2009-07-12 00:39:00",1054449,15.53,286.7,0.897,0.272,21.35,109.2515,22.97,23.78,31.21,0,111,13.17,23.80,248.7
"2009-07-12 00:39:30",1054450,15.42,285.3,1.049,0.236,21.48,109.2749,23.03,23.83,31.12,0,110.9,13.17,23.86,247.3
"2009-07-12 00:40:00",1054451,15.18,284.6,0.734,0.336,21.52,109.2864,23.06,23.87,30.97,0,110.9,13.17,23.89,246.6
"2009-07-12 00:40:30",1054452,14.76,285.4,1.432,0.286,21.63,109.3086,23.12,23.91,30.82,0,110.9,13.17,23.95,247.4
"2009-07-12 00:41:00",1054453,14.92,284.1,1.483,0.201,21.69,109.3173,23.14,23.97,30.67,0,110.9,13.17,23.97,246.1
"2009-07-12 00:41:30",1054454,14.9,283.5,0.549,0.16,21.68,109.3423,23.21,23.99,30.58,0,110.9,13.17,24.04,245.5
"2009-07-12 00:42:00",1054455,15.33,283.1,0.997,0.515,21.83,109.3451,23.21,24.04,30.34,0,110.9,13.17,24.05,245.1
"2009-07-12 00:42:30",1054456,15.57,281.3,1.496,0.304,21.88,109.371,23.28,24.06,30.24,0,111,13.17,24.11,243.3
"2009-07-12 00:43:00",1054457,14.74,280.4,1.389,0.728,22.1,109.3786,23.3,24.1,29.95,0,111,13.18,24.13,242.4
"2009-07-12 00:43:30",1054458,14.69,280.8,0.963,0.542,21.88,109.405,23.37,24.14,30.06,0,111,13.18,24.20,242.8
"2009-07-12 00:44:00",1054459,15.34,279.5,1.094,0.219,21.76,109.4109,23.38,24.18,30.04,0,111,13.18,24.21,241.5
"2009-07-12 00:44:30",1054460,15.11,280.7,0.639,0.167,21.88,109.4306,23.43,24.21,29.92,0,111,13.18,24.27,242.7
"2009-07-12 00:45:00",1054461,14.77,277.4,0.678,0.307,21.93,109.4435,23.46,24.24,29.68,0,111,13.18,24.30,239.4
"2009-07-12 00:45:30",1054462,14.78,276.2,1.798,0.34,21.74,109.4578,23.5,24.29,29.84,0,110.9,13.18,24.34,238.2
"2009-07-12 00:46:00",1054463,14.29,274.1,0.539,0.303,21.89,109.4767,23.55,24.32,29.53,0,110.9,13.18,24.38,236.1
"2009-07-12 00:46:30",1054464,14.39,273.3,1.4,0.251,21.84,109.4792,23.56,24.37,29.33,0,111,13.18,24.39,235.3
"2009-07-12 00:47:00",1054465,14.89,274.3,0.803,0.147,21.45,109.5037,23.62,24.39,29.74,0,111,13.18,24.45,236.3
"2009-07-12 00:47:30",1054466,14.95,274.3,1.096,0.239,21.19,109.5113,23.64,24.43,30.07,0,111,13.18,24.47,236.3
"2009-07-12 00:48:00",1054467,14.63,274,1.797,0.286,20.91,109.511,23.64,24.46,30.65,0,111,13.18,24.47,236.0
"2009-07-12 00:48:30",1054468,14.63,275.5,1.848,0.475,20.46,109.5113,23.64,24.48,31.47,0,111,13.18,24.47,237.5
"2009-07-12 00:49:00",1054469,14.01,282.8,2.609,0.238,19.68,109.5014,23.61,24.51,33.07,0,111,13.18,24.45,244.8
"2009-07-12 00:49:30",1054470,13.88,283.2,0.926,0.287,19.74,109.4768,23.55,24.52,33.65,0,111,13.18,24.38,245.2
"2009-07-12 00:50:00",1054471,13.45,285.1,2.513,0.484,19.74,109.4405,23.46,24.5,33.77,0,111,13.18,24.29,247.1
"2009-07-12 00:50:30",1054472,13.89,285.9,1.398,0.481,19.75,109.4055,23.37,24.47,34.29,0,110.9,13.18,24.20,247.9
"2009-07-12 00:51:00",1054473,13.73,284.6,2.29,0.395,19.79,109.3623,23.26,24.43,34.49,0,110.9,13.18,24.09,246.6
"2009-07-12 00:51:30",1054474,14.06,287,0.884,0.275,19.79,109.3196,23.15,24.35,34.76,0,110.9,13.18,23.98,249.0
"2009-07-12 00:52:00",1054475,13.9,284.3,2.318,0.271,20.14,109.2682,23.01,24.26,34.68,0,111,13.18,23.85,246.3
"2009-07-12 00:52:30",1054476,13.58,282.1,1.214,0.2,20.56,109.2171,22.88,24.17,34.28,0,111,13.18,23.72,244.1
"2009-07-12 00:53:00",1054477,13.77,284.1,1.58,0.396,20.33,109.1647,22.75,24.08,34.46,0,111,13.18,23.58,246.1
"2009-07-12 00:53:30",1054478,13.82,279.3,3.193,0.409,21.34,109.1248,22.65,23.97,33.51,0,111,13.18,23.48,241.3
"2009-07-12 00:54:00",1054479,13.53,275.3,1.174,0.209,22.27,109.0873,22.55,23.88,31.36,0,110.9,13.18,23.38,237.3
"2009-07-12 00:54:30",1054480,13.49,276.3,0.72,0.243,22.15,109.0893,22.56,23.78,31.14,0,110.9,13.17,23.39,238.3
"2009-07-12 00:55:00",1054481,12.83,276.9,0.568,0.222,22.23,109.0893,22.56,23.73,31.03,0,111,13.17,23.39,238.9
"2009-07-12 00:55:30",1054482,12.82,279.1,1.53,0.226,22.03,109.0976,22.58,23.68,31.01,0,110.9,13.17,23.41,241.1
"2009-07-12 00:56:00",1054483,12.78,279.9,1.291,0.453,22.05,109.121,22.64,23.65,30.92,0,111,13.17,23.47,241.9
"2009-07-12 00:56:30",1054484,12.62,280.3,1.386,0.161,21.91,109.151,22.71,23.66,31,0,110.9,13.18,23.55,242.3
"2009-07-12 00:57:00",1054485,12.82,281,1.111,0.192,21.77,109.1768,22.78,23.68,30.92,0,110.9,13.17,23.61,243.0
"2009-07-12 00:57:30",1054486,12.33,279.5,0.986,0.199,21.78,109.205,22.85,23.71,30.89,0,110.9,13.17,23.68,241.5
"2009-07-12 00:58:00",1054487,12.25,281.2,1.591,0.289,21.53,109.234,22.93,23.74,31.01,0,110.9,13.18,23.76,243.2
"2009-07-12 00:58:30",1054488,12.66,280,1.489,0.295,21.57,109.2646,23.01,23.8,31.09,0,111,13.18,23.84,242.0
"2009-07-12 00:59:00",1054489,12.48,282.2,1.741,0.158,21.61,109.2897,23.07,23.84,30.84,0,111,13.19,23.90,244.2
"2009-07-12 00:59:30",1054490,12.92,286.2,1.031,0.23,21.23,109.3068,23.11,23.9,31.02,0,111,13.19,23.95,248.2
"2009-07-12 01:00:00",1054491,12.44,287.8,1.592,0.27,21.08,109.3357,23.19,23.93,31.4,0,111,13.19,24.02,249.8
"2009-07-12 01:00:30",1054492,12.58,286.8,2.294,0.345,21.43,109.341,23.2,23.98,30.96,0,111,13.19,24.03,248.8
"2009-07-12 01:01:00",1054493,12.89,289.8,0.828,0.181,21.48,109.3584,23.25,24.01,30.72,0,111,13.19,24.08,251.8
"2009-07-12 01:01:30",1054494,12.63,292.2,1.209,0.204,21.4,109.374,23.29,24.05,30.66,0,111,13.19,24.12,254.2
"2009-07-12 01:02:00",1054495,12.48,293.5,2.43,0.323,21.47,109.3725,23.28,24.08,30.5,0,111,13.19,24.12,255.5
"2009-07-12 01:02:30",1054496,12.69,297.6,1.533,0.304,21.54,109.3761,23.29,24.1,30.29,0,111,13.19,24.13,259.6
"2009-07-12 01:03:00",1054497,13.14,297.4,0.697,0.207,21.33,109.3839,23.31,24.13,30.47,0,111,13.19,24.15,259.4
"2009-07-12 01:03:30",1054498,13.11,296.8,0.516,0.111,21.44,109.3996,23.35,24.15,30.36,0,111,13.19,24.19,258.8
"2009-07-12 01:04:00",1054499,12.72,296.7,0.502,0.104,21.47,109.4114,23.38,24.19,30.18,0,111,13.19,24.22,258.7
"2009-07-12 01:04:30",1054500,12.48,296.8,0.92,0.235,21.39,109.4126,23.39,24.21,30.19,0,111,13.19,24.22,258.8
"2009-07-12 01:05:00",1054501,12.09,295.5,0.456,0.182,21.31,109.412,23.38,24.23,30.25,0,111,13.19,24.22,257.5
"2009-07-12 01:05:30",1054502,12.16,294.6,1.076,0.317,21.43,109.4114,23.38,24.24,30.19,0,111,13.19,24.22,256.6
"2009-07-12 01:06:00",1054503,12.34,295.1,1.712,0.91,21.39,109.4149,23.39,24.26,30.07,0,111,13.19,24.23,257.1
"2009-07-12 01:06:30",1054504,14.15,296.6,2.304,0.856,21.02,109.4236,23.41,24.29,30.51,0,111,13.19,24.25,258.6
"2009-07-12 01:07:00",1054505,14.84,299.7,1.809,0.294,21.14,109.4287,23.43,24.3,30.54,0,111,13.19,24.26,261.7
"2009-07-12 01:07:30",1054506,14.39,299.3,1.93,0.266,21.14,109.4266,23.42,24.29,30.42,0,111,13.19,24.26,261.3
"2009-07-12 01:08:00",1054507,14.23,299.5,1.789,0.176,21.06,109.4222,23.41,24.32,30.49,0,111,13.19,24.24,261.5
"2009-07-12 01:08:30",1054508,14.97,300.6,1.613,0.58,21.03,109.4202,23.41,24.33,30.53,0,111,13.19,24.24,262.6
"2009-07-12 01:09:00",1054509,15.12,302.2,1.388,0.608,21.19,109.414,23.39,24.31,30.38,0,111,13.19,24.22,264.2
"2009-07-12 01:09:30",1054510,14.57,299.4,2.189,0.316,21.35,109.413,23.39,24.32,30.17,0,111,13.19,24.22,261.4
"2009-07-12 01:10:00",1054511,14.71,300.4,1.47,0.463,21.39,109.413,23.39,24.32,30.04,0,111,13.19,24.22,262.4
"2009-07-12 01:10:30",1054512,14.66,301.2,1.369,0.523,21.47,109.413,23.39,24.33,29.94,0,111,13.18,24.22,263.2
"2009-07-12 01:11:00",1054513,14.84,301.9,0.985,0.29,21.42,109.413,23.39,24.33,29.83,0,111,13.18,24.22,263.9
"2009-07-12 01:11:30",1054514,15.55,301.1,1.211,0.267,21.48,109.413,23.39,24.31,29.75,0,111,13.18,24.22,263.1
"2009-07-12 01:12:00",1054515,14.8,301.6,1.383,0.397,21.5,109.413,23.39,24.31,29.68,0,111,13.18,24.22,263.6
"2009-07-12 01:12:30",1054516,14.92,302.8,0.807,0.468,21.54,109.413,23.39,24.31,29.59,0,111,13.18,24.22,264.8
"2009-07-12 01:13:00",1054517,15.3,301.8,0.852,0.337,21.6,109.413,23.39,24.31,29.48,0,111,13.18,24.22,263.8
"2009-07-12 01:13:30",1054518,14.58,303.3,1.036,0.161,21.67,109.413,23.39,24.33,29.34,0,111,13.18,24.22,265.3
"2009-07-12 01:14:00",1054519,15.02,304.4,1.017,0.182,21.62,109.413,23.39,24.32,29.2,0,111,13.18,24.22,266.4
"2009-07-12 01:14:30",1054520,14.6,302.9,1.673,0.333,21.82,109.4267,23.42,24.34,29.04,0,111,13.18,24.26,264.9
"2009-07-12 01:15:00",1054521,14.61,305.1,2.116,0.557,22.02,109.4416,23.46,24.34,28.75,0,111,13.18,24.29,267.1
"2009-07-12 01:15:30",1054522,14.2,307.3,1.991,0.472,22.1,109.4467,23.47,24.37,28.56,0,111,13.19,24.31,269.3
"2009-07-12 01:16:00",1054523,14.55,305.9,2.32,0.738,22.09,109.4498,23.48,24.38,28.43,0,111,13.19,24.31,267.9
"2009-07-12 01:16:30",1054524,15.43,306.3,1.595,0.351,22.06,109.4742,23.54,24.42,28.57,0,111,13.19,24.38,268.3
"2009-07-12 01:17:00",1054525,16.53,307.3,1.936,0.544,21.74,109.4813,23.56,24.45,29.01,0,111,13.19,24.40,269.3
"2009-07-12 01:17:30",1054526,17.05,309.9,0.713,0.131,21.54,109.5052,23.62,24.47,29.56,0,111,13.19,24.46,271.9
"2009-07-12 01:18:00",1054527,16.65,311.2,0.83,0.275,21.57,109.517,23.65,24.51,29.61,0,111,13.19,24.49,273.2
"2009-07-12 01:18:30",1054528,16.78,309.4,0.688,0.218,21.75,109.5454,23.73,24.56,29.28,0,111,13.19,24.56,271.4
"2009-07-12 01:19:00",1054529,16.27,308.7,0.78,0.215,22.06,109.5546,23.75,24.59,28.59,0,111,13.19,24.59,270.7
"2009-07-12 01:19:30",1054530,15.53,312.5,1.797,0.512,22.03,109.5811,23.82,24.63,28.47,0,111,13.19,24.65,274.5
"2009-07-12 01:20:00",1054531,15.23,311.4,2.864,0.398,21.49,109.5982,23.86,24.68,29.19,0,111,13.19,24.70,273.4
"2009-07-12 01:20:30",1054532,15.66,313.3,1.227,0.359,21.39,109.6159,23.91,24.73,29.59,0,111,13.19,24.74,275.3
"2009-07-12 01:21:00",1054533,15.91,314.3,1.855,0.297,21.32,109.6387,23.97,24.75,29.72,0,111,13.19,24.80,276.3
"2009-07-12 01:21:30",1054534,15.8,316.8,1.701,0.624,21.26,109.6488,23.99,24.81,29.76,0,111,13.19,24.83,278.8
"2009-07-12 01:22:00",1054535,14.02,317.4,1.236,0.671,21.19,109.6502,24,24.84,29.85,0,111,13.19,24.83,279.4
"2009-07-12 01:22:30",1054536,13.98,320.2,3.052,0.816,21.14,109.6625,24.03,24.87,30.24,0,111,13.19,24.86,282.2
"2009-07-12 01:23:00",1054537,14.81,323.5,1.607,0.469,21.77,109.6774,24.07,24.89,29.33,0,111,13.19,24.90,285.5
"2009-07-12 01:23:30",1054538,14.45,321.8,2.479,0.511,21.31,109.6788,24.07,24.91,30.04,0,111,13.19,24.91,283.8
"2009-07-12 01:24:00",1054539,15.18,323.9,1.532,0.271,21.67,109.6801,24.07,24.93,29.53,0,111,13.19,24.91,285.9
"2009-07-12 01:24:30",1054540,14.55,323.5,1.376,0.372,22.24,109.6786,24.07,24.94,28.55,0,111,13.19,24.90,285.5
"2009-07-12 01:25:00",1054541,13.99,326.9,1.844,0.811,22.36,109.6779,24.07,24.94,27.88,0,111,13.19,24.90,288.9
"2009-07-12 01:25:30",1054542,12.76,325.3,2.386,0.621,21.28,109.6764,24.06,24.96,29.21,0,111,13.19,24.90,287.3
"2009-07-12 01:26:00",1054543,12.89,319.9,2.795,1.021,22.59,109.6764,24.06,24.98,27.76,0,111,13.19,24.90,281.9
"2009-07-12 01:26:30",1054544,13.26,322.9,2.608,1.034,20.81,109.6829,24.08,24.98,29.63,0,111,13.19,24.92,284.9
"2009-07-12 01:27:00",1054545,13.61,330.1,1.535,0.552,20.9,109.6935,24.11,25.01,30.49,0,111,13.18,24.94,292.1
"2009-07-12 01:27:30",1054546,14.71,331.4,1.24,0.239,21.22,109.6956,24.11,25.01,30.24,0,111,13.18,24.95,293.4
"2009-07-12 01:28:00",1054547,14.58,329.2,1.197,0.392,21.08,109.6951,24.11,25.03,30.3,0,111,13.18,24.95,291.2
"2009-07-12 01:28:30",1054548,15.12,328.3,0.812,0.183,21.47,109.6852,24.09,25.02,30.08,0,111,13.18,24.92,290.3
"2009-07-12 01:29:00",1054549,14.71,328.7,0.79,0.208,21.11,109.6739,24.06,25.02,30.28,0,111,13.18,24.89,290.7
"2009-07-12 01:29:30",1054550,14.15,326.2,1.22,0.264,21.06,109.6751,24.06,25.02,30.59,0,111,13.18,24.90,288.2
"2009-07-12 01:30:00",1054551,14.96,325.6,0.647,0.382,21.44,109.6739,24.06,25.03,30.02,0,111,13.18,24.89,287.6
"2009-07-12 01:30:30",1054552,15.22,324.3,1.771,0.773,21.33,109.673,24.05,24.99,29.71,0,111,13.18,24.89,286.3
"2009-07-12 01:31:00",1054553,15.52,325.7,1.321,0.302,21.45,109.6593,24.02,25,29.72,0,111,13.18,24.85,287.7
"2009-07-12 01:31:30",1054554,14.74,324.4,1.735,0.692,21.35,109.641,23.97,24.98,29.87,0,111,13.17,24.81,286.4
"2009-07-12 01:32:00",1054555,14.02,325.2,1.987,0.7,21.29,109.6405,23.97,24.97,30.11,0,111,13.18,24.81,287.2
"2009-07-12 01:32:30",1054556,14.45,327.1,1.898,0.618,21.25,109.6365,23.96,24.95,30.1,0,111,13.18,24.80,289.1
"2009-07-12 01:33:00",1054557,14.55,326.1,1.249,0.55,21.22,109.6174,23.91,24.92,30.25,0,111,13.19,24.75,288.1
"2009-07-12 01:33:30",1054558,14.47,327.3,2.186,0.407,21.11,109.6061,23.88,24.91,30.48,0,111,13.19,24.72,289.3
"2009-07-12 01:34:00",1054559,14.12,327.9,1.328,0.397,21.09,109.6061,23.88,24.89,30.6,0,111,13.19,24.72,289.9
"2009-07-12 01:34:30",1054560,14.53,327.9,1.235,0.407,21.17,109.5927,23.85,24.86,30.72,0,111,13.19,24.68,289.9
"2009-07-12 01:35:00",1054561,13.82,326.9,1.698,0.562,21.18,109.5744,23.8,24.83,30.76,0,111,13.19,24.64,288.9
"2009-07-12 01:35:30",1054562,12.73,326.9,1.884,0.51,21.16,109.5724,23.8,24.83,30.89,0,111,13.19,24.63,288.9
"2009-07-12 01:36:00",1054563,12.01,324.3,1.636,0.7,21.09,109.566,23.78,24.8,31.01,0,111,13.19,24.61,286.3
"2009-07-12 01:36:30",1054564,12.1,324.2,1.921,0.511,21.08,109.5412,23.72,24.78,31.13,0,111,13.19,24.55,286.2
"2009-07-12 01:37:00",1054565,12.17,324.3,2.583,0.596,21.02,109.5387,23.71,24.76,31.28,0,111,13.19,24.54,286.3
"2009-07-12 01:37:30",1054566,12.29,324.7,1.657,0.536,21.09,109.535,23.7,24.72,31.42,0,111,13.19,24.53,286.7
"2009-07-12 01:38:00",1054567,12.36,324.1,1.681,0.39,21.14,109.5111,23.64,24.71,31.41,0,111,13.19,24.47,286.1
"2009-07-12 01:38:30",1054568,12.58,324.2,1.56,0.256,21.07,109.5052,23.62,24.68,31.62,0,111,13.19,24.46,286.2
"2009-07-12 01:39:00",1054569,12.2,322.6,2.825,0.244,21.1,109.5044,23.62,24.65,31.6,0,111,13.19,24.46,284.6
"2009-07-12 01:39:30",1054570,12.5,321.8,1.644,0.288,21.04,109.4803,23.56,24.63,31.66,0,111,13.19,24.39,283.8
"2009-07-12 01:40:00",1054571,12.45,320.9,1.146,0.341,21.04,109.4724,23.54,24.6,31.74,0,111,13.19,24.37,282.9
"2009-07-12 01:40:30",1054572,11.18,315.8,2.485,0.344,20.95,109.4718,23.54,24.58,31.85,0,111,13.19,24.37,277.8
"2009-07-12 01:41:00",1054573,11.27,319,2.479,0.479,21,109.4651,23.52,24.54,31.89,0,111,13.19,24.35,281.0
"2009-07-12 01:41:30",1054574,10.65,317.8,1.716,0.492,20.96,109.4454,23.47,24.54,31.97,0,111,13.19,24.30,279.8
"2009-07-12 01:42:00",1054575,10.5,317.9,2.098,0.528,20.92,109.4415,23.46,24.51,32.15,0,111,13.19,24.29,279.9
"2009-07-12 01:42:30",1054576,11.22,316.9,1.512,0.238,21.06,109.4395,23.45,24.49,32.09,0,111,13.19,24.29,278.9
"2009-07-12 01:43:00",1054577,10.86,317.6,2.735,0.283,21.02,109.4212,23.41,24.48,32.15,0,111,13.19,24.24,279.6
"2009-07-12 01:43:30",1054578,10.93,321.3,0.782,0.305,21.19,109.408,23.37,24.44,31.99,0,111,13.19,24.21,283.3
"2009-07-12 01:44:00",1054579,10.63,322.3,1.51,0.247,21.17,109.408,23.37,24.41,31.94,0,111,13.19,24.21,284.3
"2009-07-12 01:44:30",1054580,10.7,324.9,1.563,0.225,21.18,109.3925,23.33,24.39,31.98,0,111,13.19,24.17,286.9
"2009-07-12 01:45:00",1054581,10.86,323.6,1.06,0.3,21.14,109.3791,23.3,24.36,32.01,0,111,13.19,24.13,285.6
"2009-07-12 01:45:30",1054582,11.89,322.5,1.58,0.34,21.32,109.3777,23.3,24.34,31.8,0,111,13.19,24.13,284.5
"2009-07-12 01:46:00",1054583,11.84,323.6,1.501,0.493,21.31,109.3783,23.3,24.31,31.71,0,111,13.19,24.13,285.6
"2009-07-12 01:46:30",1054584,11.37,324.1,1.409,0.457,21.26,109.3702,23.28,24.3,31.87,0,111,13.19,24.11,286.1
"2009-07-12 01:47:00",1054585,11.07,323.5,2.866,0.952,21.06,109.3497,23.22,24.27,31.99,0,111,13.19,24.06,285.5
"2009-07-12 01:47:30",1054586,11.91,325,1.444,0.465,21.13,109.3455,23.21,24.25,32.22,0,111,13.19,24.05,287.0
"2009-07-12 01:48:00",1054587,12.03,324.3,1.506,0.374,21.16,109.3452,23.21,24.23,32.04,0,111,13.19,24.05,286.3